Ephrata, WA
on Wednesday, February 6, 2013

Wednesday
Previous Day Next Day
Daily Summary
 ActualAverageRecord
Temperature
Mean Temperature °F 32°F  
Max Temperature 49°F 40°F 54°F (1967)
Min Temperature 25°F 25°F -8°F (1985)
Degree Days
Heating Degree Days 28 33  
Month to date heating degree days 192 199  
Since 1 July heating degree days 3628 3907  
Cooling Degree Days 0 0  
Month to date cooling degree days 0 0  
Year to date cooling degree days 0 0  
Moisture
Dew Point 29°F   
Average Humidity 79    
Maximum Humidity 100    
Minimum Humidity 58    
Precipitation
Precipitation T in 0.02 in 0.34 in (1983)
Month to date precipitation T 0.15  
Year to date precipitation 0.19 1.06  
Wind
Wind Speed 6 mph   
Max Wind Speed 18 mph   
Max Gust Speed 23 mph   
Visibility 5 miles   
Events Fog , Rain   

Key: T is trace of precipitation, MM is missing value
Source: NWS Daily Summary
Time(PST)TemperatureDew PointHumidity Pressure Visibility Wind DirectionWind SpeedGust SpeedPrecipitationEvents Conditions
12:53 AM 28.0°F 27.0°F 96% 29.95 in 0.2 miles Calm Calm - N/A Fog Light Freezing Fog
1:53 AM 28.0°F 27.0°F 96% 29.96 in 0.5 miles ENE 3.5 mph - N/A Fog Light Freezing Fog
2:10 AM 28.4°F 26.6°F 93% 29.92 in 0.2 miles NNE 4.6 mph - N/A Fog Light Freezing Fog
2:17 AM 28.4°F 28.4°F 100% 29.92 in 0.5 miles North 3.5 mph - N/A Fog Light Freezing Fog
2:53 AM 28.0°F 27.0°F 96% 29.96 in 0.5 miles Calm Calm - N/A Fog Light Freezing Fog
3:10 AM 28.4°F 26.6°F 93% 29.93 in 1.2 miles East 3.5 mph - N/A   Scattered Clouds
3:20 AM 28.4°F 26.6°F 93% 29.94 in 3.0 miles East 4.6 mph - N/A   Scattered Clouds
3:27 AM 28.4°F 28.4°F 100% 29.94 in 2.0 miles Calm Calm - N/A   Partly Cloudy
3:34 AM 28.4°F 26.6°F 93% 29.94 in 1.0 miles NNE 6.9 mph - N/A   Mist
3:38 AM 28.4°F 26.6°F 93% 29.94 in 0.2 miles NNE 3.5 mph - N/A Fog Light Freezing Fog
4:53 AM 28.9°F 28.0°F 96% 29.99 in 0.2 miles Calm Calm - N/A Fog Light Freezing Fog
5:36 AM 26.6°F 24.8°F 93% 29.96 in 0.5 miles Calm Calm - N/A Fog Light Freezing Fog
5:44 AM 24.8°F 23.0°F 93% 29.96 in 0.2 miles SSW 3.5 mph - N/A Fog Light Freezing Fog
5:53 AM 25.0°F 23.0°F 92% 30.01 in 0.2 miles North 3.5 mph - N/A Fog Light Freezing Fog
6:53 AM 26.1°F 21.9°F 84% 30.02 in 0.5 miles Calm Calm - N/A Fog Light Freezing Fog
7:53 AM 28.9°F 26.1°F 89% 30.03 in 0.2 miles Calm Calm - N/A Fog Light Freezing Fog
8:08 AM 30.2°F 26.6°F 86% 29.99 in 1.0 miles Calm Calm - N/A   Mist
8:27 AM 32.0°F 28.4°F 87% 30.00 in 2.0 miles Calm Calm - N/A   Scattered Clouds
8:35 AM 32.0°F 28.4°F 87% 30.00 in 4.0 miles Calm Calm - N/A   Partly Cloudy
8:53 AM 32.0°F 28.9°F 88% 30.05 in 5.0 miles Calm Calm - N/A   Clear
9:53 AM 37.0°F 37.0°F 100% 30.05 in 10.0 miles SW 9.2 mph - N/A   Partly Cloudy
10:53 AM 44.1°F 41.0°F 89% 30.05 in - North - - N/A   Unknown
11:53 AM 48.9°F 35.1°F 59% 30.04 in 10.0 miles SW 13.8 mph - N/A   Clear
12:53 PM 46.9°F 32.0°F 56% 30.04 in 10.0 miles SW 17.3 mph - N/A   Clear
1:53 PM 46.9°F 32.0°F 56% 30.03 in 10.0 miles WSW 9.2 mph - N/A   Partly Cloudy
2:53 PM 46.9°F 32.0°F 56% 30.03 in 10.0 miles SSW 11.5 mph - N/A   Partly Cloudy
3:53 PM 45.0°F 33.1°F 63% 30.02 in 10.0 miles South 5.8 mph - N/A   Mostly Cloudy
4:53 PM 39.9°F 32.0°F 73% 30.01 in 10.0 miles SSE 5.8 mph - N/A   Scattered Clouds
5:53 PM 39.9°F 32.0°F 73% 30.01 in 10.0 miles Calm Calm - N/A   Overcast
6:53 PM 39.0°F 32.0°F 76% 30.01 in 10.0 miles North 5.8 mph - N/A   Overcast
7:53 PM 37.9°F 32.0°F 79% 30.01 in 10.0 miles North 8.1 mph - 0.00 in Rain Light Rain
8:53 PM 37.0°F 32.0°F 82% 29.98 in 10.0 miles North 8.1 mph - 0.00 in   Overcast
9:53 PM 36.0°F 32.0°F 86% 29.96 in 10.0 miles North 9.2 mph - N/A   Partly Cloudy
10:53 PM 34.0°F 30.9°F 89% 29.95 in 10.0 miles North 6.9 mph - N/A   Clear
11:53 PM 37.0°F 30.9°F 79% 29.93 in 10.0 miles North 8.1 mph - N/A   Partly Cloudy
Moon Phase
Feb. 06 Feb. 10 Feb. 17 Feb. 25 Mar. 04
Sunrise:07:16 AM (PST) Moon Rise:04:13 AM (PST)2/6
Sunset:05:08 PM (PST) Moon Set:01:24 PM (PST)2/6

Copyright © 2014 The Weather Underground, Inc.